Weather in Kanash

Russia / Chuvash Republic     55°50′31″N   46°13′34″E
temp.,
°C
wind,
m/s
gust,
m/s
humid.,
%
clouds,
%
prec.,
mm/h
press.,
hPa
HPBL,
m
15 may, sat
sat1500:00+17sse3384100 0.0 101736
03:00+17ese2288100 0.5 101617
06:00+18se4983100 0.0 1015214
09:00+23s51164100 0.0 1015592
12:00+25ssw71452100 0.0 10151176
15:00+25ssw7135053 0.0 10151220
18:00+23s511632 0.0 1015276
21:00+18sse411757 0.0 1015170
16 may, sun
sun1600:00+16s411735 0.0 1014173
03:00+15s34755 0.0 101557
06:00+16s2479100 0.0 1015127
09:00+21ssw3571100 0.0 1015520
12:00+24sw4563100 0.0 10151106
15:00+24wsw356390 0.0 10151112
18:00+19sw258667 5.4 1015169
21:00+17ssw22897 5.9 101617
17 may, mon
mon1700:00+16ssw2290100 0.3 101617
03:00+16sw1293100 2.6 101715
06:00+18sw018757 0.8 101877
09:00+22ene117194 0.8 1018410
12:00+25s235391 0.0 1018933
15:00+27sw23505 0.0 10171115
18:00+25ne22625 0.0 101622
21:00+19se357577 0.0 101756
18 may, tue
tue1800:00+17sse226792 0.0 101711
03:00+16se336394 0.0 101727
06:00+18se23688 0.0 101768
09:00+23sse365696 0.0 1016325
12:00+27sse46389 0.0 10161371
15:00+29se26415 0.0 10152515
18:00+24ese35655 0.0 1014103
21:00+19ese41066100 0.0 1014137
19 may, wed
wed1900:00+17se4965100 0.0 1014124
03:00+17ese4106260 0.0 1014144
06:00+18se4126817 0.0 1013197
09:00+25se5135611 0.0 1012695
12:00+28se7114558 0.0 10111661
15:00+27sse5104858 0.0 1011720
18:00+23se5116065 0.0 1009279
21:00+18se3478100 0.5 100962